Location: Aranbee
(34.0885°N, 118.2342°W)
Time: 18:13:48
(UTC+00:00)

Vanguard 2 - Visible Passes

Search period start: 19 June 2021 00:00
Search period end: 29 June 2021 00:00
Orbit: 552 x 2937 km, 32.9° (Epoch: 18 June)

Date Brightness Start Highest point End Pass type
(mag) Time Alt. Az. Time Alt. Az. Time Alt. Az.
19 Jun 8.6 03:33:48 10° W 03:44:40 83° S 03:50:58 10° E visible
19 Jun 7.8 05:46:15 10° W 05:53:23 56° SSW 05:53:23 56° SSW visible
20 Jun 8.5 03:51:54 10° W 04:02:30 82° S 04:08:39 10° E visible
20 Jun 8.5 06:04:18 10° W 06:10:04 39° SW 06:10:04 39° SW visible
21 Jun 8.4 04:09:59 10° W 04:20:18 77° S 04:25:20 16° ESE visible
21 Jun 9.2 06:22:28 10° W 06:26:44 26° WSW 06:26:44 26° WSW visible
22 Jun 8.4 04:28:04 10° W 04:38:02 68° SSW 04:42:00 24° ESE visible
22 Jun 9.8 06:40:54 10° W 06:43:23 17° WSW 06:43:23 17° WSW visible
23 Jun 8.5 04:46:09 10° W 04:55:41 57° SSW 04:58:39 31° SE visible
23 Jun 10.3 06:59:58 10° WSW 07:00:03 10° WSW 07:00:03 10° WSW visible
24 Jun 8.6 05:04:17 10° W 05:13:11 45° SSW 05:15:19 34° SSE visible
25 Jun 8.9 05:22:33 10° W 05:30:34 34° SW 05:31:58 31° SSW visible
26 Jun 9.1 03:27:08 10° W 03:39:41 68° SSW 03:46:59 10° ESE visible
26 Jun 9.4 05:41:03 10° W 05:47:48 24° SW 05:48:38 24° SSW visible
27 Jun 9.2 03:45:16 10° W 03:57:19 58° SSW 04:03:56 13° SE visible
27 Jun 10.0 06:00:06 10° W 06:04:56 16° SW 06:05:19 16° SW visible
28 Jun 9.4 04:03:27 10° W 04:14:48 47° SSW 04:20:37 16° SE visible
